Other Surface Observations
Issued by NWS Tucson, AZ

Home | Current Version | Previous Version | Text Only | Print | Product List | Glossary On
Versions: 1 2 3 4 5 6 7 8 9 10 11 12 13 14 15 16 17 18 19 20 21 22 23 24 25 26 27 28 29 30 31 32 33 34 35 36 37 38 39 40 41 42 43 44 45 46 47 48 49 50
000
SXUS55 KTWC 191815
OSOTWC

WEATHER ROUNDUP FOR SOUTHEAST ARIZONA
NATIONAL WEATHER SERVICE TUCSON AZ
1115 AM MST SUN APR 19 2015

AZZ504>506-514-191915-
LOCATION       SKY/WX    TMP DP  RH WIND       PRES   REMARKS
TUCSON         SUNNY     78  22  12 CALM      30.00F
DAVIS-MONTHAN  SUNNY     76  21  12 NW12G20   29.98F
CHILDRENS PARK N/A       71  27  19 SE3               PIMA CO DEQ
ALVERNON/22ND  N/A      N/A N/A N/A N/A               PIMA CO DEQ
CHERRY/GLENN   N/A      N/A N/A N/A N/A               PIMA CO DEQ
TANGERINE      N/A       74 N/A N/A SW6               PIMA CO DEQ
CONTL RANCH    N/A       74  28  18 SE4               PIMA CO DEQ
GRANT/1ST      N/A       73  26  17 S2                PIMA CO DEQ
CRAYCROFT/22ND N/A      N/A N/A N/A N/A               PIMA CO DEQ
GOLFLINKS/KOLB N/A      N/A N/A N/A N/A               PIMA CO DEQ
AJO/12TH       N/A       74  25  16 S4                PIMA CO DEQ
SAGUARO EAST   N/A      N/A N/A N/A N/A               PIMA CO DEQ
FAIRGROUNDS    N/A       73 N/A N/A W5                PIMA CO DEQ
SAGUARO        N/A       78  25  14 SE3               *SABINO CYN
SAN CARLOS     N/A       76  22  13 SW3               *SAN CARLOS
GREEN VALLEY   N/A       74  23  15 SE3               PIMA CO DEQ
HORSE CAMP CYN N/A       70  20  15 SW7G12            *ARAVAIPA CYN
RINCON MTNS    N/A       60  19  20 S2                *NR MANNING CAMP
$$

AZZ509>511-191915-
LOCATION       SKY/WX    TMP DP  RH WIND       PRES   REMARKS
SAFFORD        SUNNY     78  18  10 NW13G20   29.97F
STRAY HORSE    N/A       58  16  19 SW4               *
TRAIL CABIN    N/A       66  17  15 SW5G10            *N OF GRANVILLE
BLACK HILLS    N/A       77  18  11 NW9G15            *N OF FT THOMAS
DRY LAKE       N/A       61  17  18 NW5G10            *NATANES MTNS
NOON CREEK     N/A       71  24  17 NE7G10            *PINALENO MTNS
COLUMBINE      N/A       53   0  11 W4                *PINALENO MTNS
GUTHRIE        N/A       63  16  16 W4G11             *SW OF GUTHRIE
$$

AZZ502-503-513-191915-
LOCATION       SKY/WX    TMP DP  RH WIND       PRES   REMARKS
NOGALES        SUNNY     76  21  12 NW6       30.03F
SELLS          N/A       82  22  11 W3                *
SASABE         N/A       77  22  13 NE6G11            *ALTAR VLY
HOPKINS        N/A       64  20  18 SE9G17            *SANTA RITA MTNS
CARR CYN       NOT AVBL
$$

AZZ507-508-512-191915-
LOCATION       SKY/WX    TMP DP  RH WIND       PRES   REMARKS
SIERRA VISTA   SUNNY     72  16  12 VRB5      30.06F
DOUGLAS        SUNNY     74  21  13 CALM      30.05F
EMPIRE MTNS    N/A       72  18  13 NW6G15            *LAS CIENEGAS NCA
MULESHOE RANCH N/A       71  19  14 W9G17             *PRESERVE
HEADQUARTERS   N/A       69  14  12 W6G10             *CHIRICAHUA MTNS
$$

.............................NOTES.............................
THIS IS AN AUTOMATED COLLECTIVE WITH MINIMAL QUALITY CONTROL.
PIMA CO DEQ SITES HAVE NONSTANDARD WIND SENSOR HEIGHTS.
PIMA CO DEQ SITES DO NOT REPORT WIND GUSTS.
* INDICATES WIND SENSORS LOCATED AT 20 FEET INSTEAD OF 33 FEET.
..............................KEY..............................
SKY/WX - SKY CONDITION/WEATHER
TMP    - TEMPERATURE IN FAHRENHEIT
DP     - DEWPOINT IN FAHRENHEIT
RH     - RELATIVE HUMIDITY IN PERCENT
WIND   - DIRECTION AND SPEED IN MILES PER HOUR (MPH)
VRB    - VARIABLE WIND DIRECTION
PRES   - MEAN SEA LEVEL PRESSURE IN INCHES OF MERCURY
         F - FALLING PRESSURE   R - RISING PRESSURE
         S - STEADY PRESSURE
VSB    - VISIBILITY IN MILES
HX     - HEAT INDEX IN FAHRENHEIT
WCI    - WIND CHILL INDEX IN FAHRENHEIT
N/A    - NOT AVAILABLE
AFB    - AIR FORCE BASE
         DAVIS-MONTHAN IS DAVIS-MONTHAN AIR FORCE BASE
CYN    - CANYON
MTNS   - MOUNTAINS
NCA    - NATIONAL CONSERVATION AREA
NR     - NEAR
VLY    - VALLEY
CONTL  - CONTINENTAL
PIMA CO DEQ - PIMA COUNTY DEPT OF ENVIRONMENTAL QUALITY



USA.gov is the U.S. government's official web portal to all federal, state and local government web resources and services.